Location: Pedholt
(56.0260°N, 10.2097°E)
Time: 20:34:24
(UTC+00:00)

Transit 2A Rocket - Pass Details

Date: 31 July 2021
Orbit: 586 x 917 km, 66.7° (Epoch: 27 September)

Event Time Altitude Azimuth Distance (km) Brightness Sun altitude
Rises 12:53:05 0° 172° (S) 2,864 8.4 48.7°
Reaches altitude 10° 12:55:48 10° 154° (SSE) 2,004 7.6 48.5°
Maximum altitude 12:58:56 19° 110° (ESE) 1,560 6.7 48.2°
Drops below altitude 10° 13:02:15 10° 66° (ENE) 2,135 7.1 47.9°
Sets 13:05:16 0° 49° (NE) 3,124 7.8 47.7°
